Location: Middelsbur
(53.6609°N, 7.5020°E)
Time: 12:32:48
(UTC+00:00)

ATLAS 5 CENTAUR R/B - Pass Details

Date: 06 July 2020
Orbit: 534 x 1124 km, 63.4° (Epoch: 03 August)

Event Time Altitude Azimuth Distance (km) Brightness Sun altitude
Rises 22:31:54 0° 261° (W) 2,815 5.0 -12.6°
Reaches altitude 10° 22:34:09 10° 270° (W) 1,977 4.3 -12.7°
Maximum altitude 22:38:17 37° 339° (NNW) 1,057 3.5 -12.8°
Drops below altitude 10° 22:43:05 10° 46° (NE) 2,290 4.9 -13.0°
Sets 22:45:53 0° 55° (NE) 3,328 5.6 -13.0°
